Location: Bradley
(41.1420°N, 87.8610°W)
Time: 23:34:48
(UTC-06:00)

OTV 5 (USA 277) - Visible Passes

Search period start: 15 December 2018 00:00
Search period end: 25 December 2018 00:00
Orbit: 340 x 348 km, 54.5° (Epoch: 10 December)

Date Brightness Start Highest point End Pass type
(mag) Time Alt. Az. Time Alt. Az. Time Alt. Az.
15 Dec ? 05:38:21 53° WSW 05:38:35 55° SW 05:41:23 10° SE visible
16 Dec ? 06:01:35 15° WSW 06:02:01 16° SW 06:03:50 10° SSW visible
17 Dec ? 04:53:25 13° SE 04:53:25 13° SE 04:53:50 10° SE visible
23 Dec ? 18:51:13 10° SW 18:51:15 10° SW 18:51:15 10° SW visible
24 Dec ? 17:41:17 10° SSE 17:43:04 15° SE 17:43:06 15° SE visible
